Location: Newark
(35.8833°N, 14.5000°E)
Time: 20:08:40
(UTC+00:00)

Transit 4A - All Passes

Search period start: 18 November 2019 00:00
Search period end: 28 November 2019 00:00
Orbit: 869 x 976 km, 66.8° (Epoch: 18 November)

Date Brightness Start Highest point End Pass type
(mag) Time Alt. Az. Time Alt. Az. Time Alt. Az.
18 Nov - 05:14:13 10° N 05:19:04 26° NE 05:23:51 10° ESE visible
18 Nov - 07:00:03 10° NW 07:05:35 45° WSW 07:11:02 10° S daylight
18 Nov - 20:16:58 10° SSW 20:23:09 61° ESE 20:29:14 10° NE night (unlit)
18 Nov - 22:05:09 10° W 22:09:55 22° NW 22:14:37 10° N night (unlit)
19 Nov - 05:23:10 10° NNW 05:28:37 38° ENE 05:33:58 10° ESE daylight
19 Nov - 07:09:50 10° NW 07:14:44 28° WSW 07:19:35 10° SSW daylight
19 Nov - 18:44:48 10° ESE 18:46:55 12° ESE 18:49:01 10° E night (unlit)
19 Nov - 20:26:08 10° SSW 20:32:27 89° WNW 20:38:38 10° NNE night (unlit)
19 Nov - 22:16:02 10° W 22:19:36 15° NW 22:23:08 10° N night (unlit)
20 Nov - 05:32:16 10° NNW 05:38:03 58° ENE 05:43:45 10° SE daylight
20 Nov - 07:20:03 10° WNW 07:23:49 18° WSW 07:27:34 10° SW daylight
20 Nov - 18:51:39 10° SSE 18:55:58 20° ESE 19:00:13 10° ENE night (unlit)
20 Nov - 20:35:36 10° SW 20:41:49 60° WNW 20:47:54 10° NNE night (unlit)
20 Nov - 22:28:13 10° NW 22:29:24 11° NW 22:30:36 10° NNW night (unlit)
21 Nov - 03:57:13 10° NNE 04:00:13 14° NE 04:03:11 10° ENE visible
21 Nov - 05:41:31 10° NNW 05:47:24 88° ENE 05:53:12 10° SSE daylight
21 Nov - 07:31:58 10° W 07:32:50 10° W 07:33:42 10° WSW daylight
21 Nov - 18:59:43 10° SSE 19:05:05 30° ESE 19:10:22 10° NE night (unlit)
21 Nov - 20:45:23 10° SW 20:51:16 40° WNW 20:57:01 10° NNE night (unlit)
22 Nov - 04:05:38 10° N 04:09:56 20° NE 04:14:08 10° E visible
22 Nov - 05:50:56 10° NW 05:56:41 60° WSW 06:02:21 10° SSE daylight
22 Nov - 19:08:18 10° S 19:14:16 46° ESE 19:20:07 10° NE night (unlit)
22 Nov - 20:55:30 10° WSW 21:00:47 28° NW 21:05:59 10° N night (unlit)
23 Nov - 04:14:26 10° N 04:19:31 30° NE 04:24:32 10° ESE visible
23 Nov - 06:00:33 10° NW 06:05:53 38° WSW 06:11:10 10° S daylight
23 Nov - 19:17:15 10° SSW 19:23:31 71° ESE 19:29:39 10° NNE visible
23 Nov - 21:06:02 10° W 21:10:24 19° NW 21:14:44 10° N night (unlit)
24 Nov - 04:23:26 10° NNW 04:29:01 44° ENE 04:34:31 10° SE visible
24 Nov - 06:10:27 10° NW 06:15:00 24° WSW 06:19:32 10° SSW daylight
24 Nov - 17:44:02 10° SE 17:47:12 14° ESE 17:50:19 10° ENE visible
24 Nov - 19:26:32 10° SSW 19:32:50 78° WNW 19:39:00 10° NNE visible
24 Nov - 21:17:12 10° WNW 21:20:08 13° NW 21:23:03 10° NNW night (unlit)
25 Nov - 02:49:30 10° NNE 02:50:57 11° NE 02:52:24 10° NE visible
25 Nov - 04:32:36 10° NNW 04:38:27 67° ENE 04:44:11 10° SE visible
25 Nov - 06:20:57 10° WNW 06:24:04 15° WSW 06:27:11 10° SW daylight
25 Nov - 17:51:30 10° SSE 17:56:16 23° ESE 18:00:57 10° ENE visible
25 Nov - 19:36:08 10° SW 19:42:13 52° WNW 19:48:12 10° NNE visible
26 Nov - 02:57:11 10° N 03:00:43 16° NE 03:04:13 10° E visible
26 Nov - 04:41:55 10° NNW 04:47:46 80° WSW 04:53:32 10° SSE visible
26 Nov - 17:59:47 10° S 18:05:24 35° ESE 18:10:55 10° NE visible
26 Nov - 19:46:02 10° WSW 19:51:41 35° NW 19:57:16 10° N visible
27 Nov - 03:05:48 10° N 03:10:24 23° NE 03:14:56 10° ESE visible
27 Nov - 04:51:23 10° NW 04:57:00 51° WSW 05:02:34 10° S visible
27 Nov - 18:08:31 10° S 18:14:37 54° ESE 18:20:35 10° NE visible
27 Nov - 19:56:17 10° WSW 20:01:15 24° NW 20:06:09 10° N visible
